Temperature
4 5 5 5 5 5 4 4 5 5 5 6 6 5 7 7 8 8 8 8 8 8 8 8 7 7 7 7 6 6 6 6 6 6 5 5 5 5 5 5 5 4 4 4
4 4 4 4 4 4 4 5 4 5 5 5 6 6 6 7 7 8 8 8 8 7 7 7 7 7 6 6 6 6 6 5 5 5 5 5 5 5 5 5 4 4 4 4
4 4 5 5 5 4 4 4 4 5 6 5 5 5 6 7 7 8 8 7 7 7 7 7 6 6 6 6 6 5 5 5 5 5 5 5 4 4 4 4 4 4 4 4
3 4 5 7 6 5 4 4 4 5 5 5 5 7 7 8 8 8 7 7 7 7 6 6 6 6 5 5 5 5 5 5 4 4 4 4 4 4 4 4 4 3 3 3
3 3 4 6 5 4 4 5 4 4 4 5 6 5 6 7 7 7 7 7 7 6 6 6 5 5 5 5 5 4 4 4 4 4 4 4 4 3 3 3 3 3 3 3
3 4 6 8 6 5 6 6 6 4 4 4 4 4 5 7 7 7 7 6 6 6 5 5 5 5 5 4 4 4 4 4 4 4 3 3 3 3 3 3 3 2 2 2
3 3 4 5 5 6 6 7 7 6 6 5 4 5 7 7 6 6 6 6 6 5 5 5 5 4 4 4 4 4 4 3 3 3 3 3 3 3 2 2 2 2 2 2
2 3 5 5 4 5 6 7 7 7 7 6 6 6 6 6 6 6 5 5 5 5 5 4 4 4 4 4 4 3 3 3 3 3 3 2 2 2 2 2 2 2 2 2
3 5 6 6 6 7 7 7 8 7 7 7 6 6 6 6 5 5 5 5 5 4 4 4 4 4 4 4 3 3 3 3 3 3 2 2 2 2 2 1 1 1 1 1
1 2 4 6 7 7 7 7 7 7 7 7 6 6 6 5 5 5 5 4 4 4 4 4 4 3 3 3 3 3 3 3 3 2 2 2 1 1 1 1 1 1 1 0
1 2 4 6 7 8 8 7 7 7 6 6 6 6 5 5 5 5 4 4 4 4 4 4 3 3 3 3 3 3 3 2 2 2 2 2 1 1 1 1 0 -0 -0 -0
4 5 4 6 8 8 7 7 7 6 6 6 5 5 5 5 4 4 4 4 3 3 3 3 3 3 3 2 2 2 2 2 2 2 1 1 1 1 1 0 0 -0 -0 -1
6 7 6 7 7 6 6 6 6 6 5 5 5 5 4 4 4 4 4 3 3 3 3 3 3 3 2 2 2 2 2 1 1 1 1 1 0 0 0 0 -0 -0 -1 -1
6 5 5 5 6 6 5 5 5 5 5 4 4 4 4 4 4 3 3 3 3 3 3 2 2 2 2 2 2 1 1 1 1 1 0 0 -0 -0 -1 -1 -1 -0 -1 -1
5 5 5 5 5 5 4 4 4 4 4 4 4 4 3 3 3 3 3 3 2 2 2 2 2 2 2 2 1 1 1 1 0 0 -0 -0 -1 -1 -1 -1 -2 -1 -1 -1
4 4 4 4 4 4 4 3 3 3 3 3 3 3 3 3 3 3 3 2 2 2 2 2 2 2 1 1 1 1 0 0 -0 -0 -1 -1 -1 -2 -2 -2 -2 -2 -2 -2
3 3 3 3 3 3 3 3 3 3 3 3 3 3 3 2 2 2 2 2 2 2 2 2 1 1 1 1 0 0 -0 -0 -1 -1 -1 -1 -2 -2 -2 -3 -3 -3 -3 -3
3 3 3 3 3 3 3 3 2 2 2 2 2 2 2 2 2 2 2 2 1 2 1 1 1 1 1 0 -0 -1 -1 -1 -1 -1 -2 -2 -2 -2 -3 -3 -3 -3 -3 -3
2 2 3 2 2 2 2 2 2 2 2 2 2 2 2 2 1 1 1 1 1 1 1 1 1 0 0 -0 -1 -1 -1 -2 -2 -2 -2 -2 -3 -3 -3 -4 -4 -4 -4 -4
2 2 2 2 2 2 2 2 1 1 1 1 1 1 1 1 1 1 1 1 1 1 0 0 -0 -0 -1 -1 -1 -2 -2 -2 -2 -2 -3 -3 -3 -3 -4 -4 -4 -4 -4 -4
2 2 2 2 2 2 1 1 1 1 1 1 1 1 1 1 0 0 0 0 1 0 -0 -0 -1 -1 -1 -2 -2 -2 -2 -3 -3 -3 -3 -3 -4 -4 -4 -4 -4 -4 -4 -4
2 2 1 1 1 1 1 1 1 1 1 1 0 0 0 0 0 0 0 -0 -0 -1 -1 -1 -1 -1 -2 -2 -2 -2 -3 -3 -3 -3 -4 -4 -4 -4 -5 -5 -5 -5 -5 -5
1 1 1 1 1 1 1 1 0 0 0 0 -0 -0 -0 -0 -0 -1 -1 -1 -1 -1 -1 -1 -2 -2 -2 -2 -3 -3 -3 -3 -4 -4 -4 -4 -5 -5 -5 -5 -5 -5 -5 -5
1 1 1 0 0 0 0 0 -0 -0 -0 -0 -0 -0 -1 -1 -1 -1 -1 -1 -1 -2 -2 -2 -2 -2 -3 -3 -3 -3 -3 -4 -4 -4 -5 -5 -5 -5 -5 -5 -5 -5 -5 -5
0 -0 -0 -0 -0 -0 -0 -1 -1 -1 -1 -1 -1 -1 -1 -1 -2 -2 -2 -2 -2 -2 -2 -2 -3 -3 -3 -3 -3 -4 -4 -4 -5 -5 -5 -5 -5 -5 -6 -6 -6 -6 -6 -6
-1 -1 -1 -1 -1 -1 -1 -1 -1 -1 -1 -1 -1 -1 -2 -2 -2 -2 -2 -2 -3 -3 -3 -3 -3 -3 -3 -4 -4 -4 -4 -5 -5 -5 -5 -6 -6 -6 -6 -6 -6 -6 -6 -6
-1 -1 -1 -1 -1 -2 -2 -2 -2 -2 -2 -2 -2 -2 -2 -3 -3 -3 -3 -3 -3 -3 -3 -3 -4 -4 -4 -4 -4 -5 -5 -5 -5 -5 -5 -6 -6 -6 -6 -6 -6 -6 -6 -7
Wind_Speed
6 5 4 6 7 8 9 9 9 8 9 11 8 7 6 5 4 3 3 3 3 3 3 3 3 3 3 3 3 2 2 3 4 4 3 3 3 4 3 3 4 4 4 5
4 3 5 8 11 11 11 9 11 10 12 9 6 4 4 5 5 5 5 4 4 4 4 3 3 3 3 3 3 2 3 4 4 3 3 3 4 3 3 4 4 4 4 5
4 5 6 9 11 12 8 8 9 12 11 4 4 6 7 7 6 6 6 5 4 4 4 4 4 3 3 3 2 2 3 4 4 3 4 4 4 3 4 4 4 4 5 5
2 3 7 7 1 7 8 8 10 8 6 5 7 6 5 5 7 6 5 5 4 3 4 4 3 3 2 2 2 2 3 4 4 3 4 4 4 4 5 4 4 5 5 6
1 3 9 9 4 6 6 7 9 11 9 5 2 1 3 4 5 6 5 5 4 4 3 3 3 2 2 2 2 3 4 4 4 4 4 4 5 6 5 4 4 5 5 5
3 4 7 6 2 4 3 6 4 8 7 5 5 2 5 4 4 4 3 3 3 2 2 2 3 2 2 3 3 4 5 5 4 4 4 5 6 5 4 4 5 5 5 5
6 6 9 7 3 5 3 6 2 5 5 7 7 6 3 2 2 3 2 3 2 2 2 3 3 2 3 4 5 5 5 5 4 4 5 6 5 4 4 4 5 5 6 6
7 7 10 5 7 8 8 2 2 4 5 6 6 4 2 3 3 2 2 2 2 2 3 3 3 3 4 5 6 4 4 4 5 5 5 4 4 5 4 4 5 5 5 6
11 10 5 6 7 5 4 4 4 4 5 6 5 5 4 4 4 4 4 3 3 3 4 4 3 3 5 6 4 4 4 5 5 5 5 4 4 5 4 4 4 5 5 6
7 10 8 8 8 6 6 6 5 5 5 5 6 6 5 5 4 4 4 3 3 3 4 5 4 4 6 5 4 4 5 6 5 5 5 4 4 4 4 5 5 5 6 6
8 8 7 8 9 9 7 6 6 5 5 7 7 7 6 5 5 5 4 3 3 4 5 6 5 5 5 5 3 4 5 6 5 5 5 5 5 5 6 6 7 7 7 6
10 8 7 7 6 7 7 8 8 7 6 6 7 8 6 6 6 5 5 4 4 4 5 6 5 6 6 4 4 4 5 5 5 4 4 5 5 6 9 11 13 14 14 11
11 7 7 8 6 6 7 8 8 8 8 7 6 6 6 5 5 5 5 5 5 6 6 6 6 7 6 4 4 5 6 6 5 5 5 5 5 5 7 7 10 12 13 14
9 6 7 8 7 7 6 6 5 5 6 6 5 4 4 5 4 5 6 6 5 5 6 6 6 8 6 4 5 6 6 7 6 5 5 5 5 6 5 6 7 6 8 11
10 9 9 7 5 5 4 3 4 4 4 4 4 4 5 5 6 7 6 4 4 5 6 6 7 8 5 4 5 6 6 5 5 5 5 5 5 5 6 7 7 8 7 8
7 7 7 7 7 6 4 5 6 6 5 5 5 6 6 6 6 5 5 4 4 6 7 6 8 8 5 5 6 6 6 9 7 5 5 5 5 5 6 7 7 7 7 7
6 7 7 7 8 8 7 7 8 7 6 6 7 6 4 4 4 5 5 5 6 7 7 8 9 8 6 6 6 5 5 6 8 6 5 6 6 6 7 7 7 8 8 8
10 10 9 8 8 8 7 7 7 6 6 6 5 4 4 5 6 6 5 4 5 7 8 8 8 7 7 6 6 5 5 5 5 6 6 6 6 6 7 7 8 9 8 8
6 7 7 7 7 6 6 6 6 6 5 4 4 5 6 6 6 5 4 4 6 8 7 6 8 7 7 7 7 5 5 6 6 6 6 9 8 6 7 7 8 8 8 7
3 3 4 4 4 4 5 4 4 4 4 4 4 4 5 5 5 4 5 6 7 7 6 7 7 6 7 7 7 5 6 6 7 7 6 7 7 7 7 8 8 8 8 7
3 2 2 2 3 3 4 4 4 4 4 4 5 5 6 5 5 4 4 7 7 6 7 9 6 6 6 7 8 5 6 6 7 7 7 7 8 8 8 8 8 8 7 7
2 2 3 3 2 3 3 3 3 4 3 4 4 5 5 6 5 5 7 7 8 8 6 5 6 8 9 9 5 6 6 7 7 7 7 7 8 8 8 8 8 8 7 7
2 2 3 3 3 3 2 2 3 4 4 5 5 6 6 6 5 5 7 5 5 8 7 6 9 13 14 8 5 6 7 7 7 7 7 7 8 8 8 8 8 8 7 7
2 3 3 2 2 2 3 4 4 4 5 5 6 6 6 5 5 6 7 9 10 11 7 10 14 15 13 6 6 6 7 7 7 7 7 7 7 7 8 8 8 7 7 7
3 3 2 2 3 4 4 4 4 4 5 5 6 6 6 6 6 6 6 7 10 11 8 10 14 14 8 6 6 7 7 7 7 7 7 7 7 7 7 7 7 7 7 6
3 3 3 4 4 4 3 3 4 4 4 5 5 5 5 5 6 7 6 7 9 11 9 7 7 8 6 6 7 7 7 8 8 8 7 7 7 7 7 7 8 7 6 6
3 3 3 3 4 4 4 4 5 5 5 6 7 6 5 5 5 6 7 7 7 7 6 6 6 6 6 6 6 7 6 6 7 7 7 7 7 7 7 7 6 6 5 5
Wind_Direction
250 261 246 241 235 208 207 206 211 235 236 254 249 243 243 238 231 228 240 246 244 249 259 266 271 277 274 277 279 265 260 264 266 271 269 268 271 271 268 258 252 247 245 247
289 281 264 261 244 226 226 226 234 253 264 251 246 232 236 230 221 226 237 240 245 254 258 262 266 273 281 286 285 268 261 267 273 276 274 271 272 275 276 271 263 253 248 247
279 309 318 269 234 207 208 209 198 227 244 240 233 228 226 224 221 224 233 239 245 250 251 256 256 250 262 273 283 282 272 275 276 274 276 277 278 279 274 269 262 260 255 250
287 345 256 251 203 186 207 233 216 229 242 227 231 236 236 218 211 223 230 235 242 244 254 257 249 251 262 276 282 279 276 277 277 278 282 285 280 272 269 262 258 259 260 255
187 265 278 289 240 179 192 261 219 222 238 240 228 2 293 232 205 210 217 222 225 229 235 250 263 264 271 280 279 276 275 276 276 272 276 281 278 274 269 264 265 260 262 257
181 230 253 261 196 176 137 284 238 198 216 195 138 195 262 234 205 220 226 225 226 233 236 257 266 260 252 267 269 268 269 271 271 263 262 267 269 270 262 257 262 267 268 259
210 238 265 255 190 135 178 254 233 187 196 179 191 213 230 194 199 214 228 237 225 222 241 251 255 237 251 264 263 264 270 275 276 269 264 264 268 263 265 265 270 270 271 268
184 213 252 209 148 184 218 239 189 197 197 198 216 225 216 209 223 231 241 246 233 231 254 257 242 222 251 263 266 273 277 279 280 276 272 271 270 274 271 264 271 276 276 280
199 217 246 188 204 223 202 208 211 206 217 204 211 224 224 226 234 238 236 239 231 229 258 267 246 226 249 264 274 279 281 280 280 281 275 268 264 270 276 262 261 270 269 274
244 258 252 243 243 244 221 222 225 217 214 202 216 224 223 229 235 237 241 241 238 237 257 269 262 252 250 266 271 272 277 280 279 279 281 277 265 254 254 257 258 260 262 266
248 266 282 262 236 234 231 231 235 233 221 216 216 225 222 226 231 232 237 240 232 236 253 265 271 271 269 268 268 271 276 277 278 272 272 276 269 253 252 247 244 250 254 254
236 228 215 245 240 218 218 228 228 226 233 228 215 220 219 225 229 226 231 233 241 248 254 265 271 274 274 265 252 257 273 275 273 273 273 271 276 284 263 257 266 264 260 257
238 238 226 249 251 226 224 231 229 222 222 226 220 214 216 225 227 224 231 235 243 250 257 266 273 275 273 262 249 246 258 268 270 268 268 269 268 275 291 290 271 268 268 267
236 235 250 246 245 240 233 236 230 227 224 219 218 215 215 222 229 232 238 240 245 254 261 265 270 274 272 259 252 254 259 263 263 262 261 263 263 265 269 282 293 290 278 274
231 222 235 247 247 240 231 218 217 230 231 230 219 216 215 221 233 241 244 242 248 257 262 264 270 274 273 256 255 260 263 263 260 259 258 259 261 265 267 269 274 282 289 286
231 231 234 236 240 239 228 216 222 234 230 226 225 228 228 230 239 247 246 233 240 258 264 267 269 272 271 259 259 262 261 264 265 262 262 263 261 262 267 269 271 273 274 277
220 234 230 234 238 237 231 227 227 230 226 225 229 230 228 235 250 255 255 246 243 254 260 261 266 273 267 255 252 258 262 268 270 268 260 259 259 261 263 265 268 270 270 269
222 228 225 224 230 235 238 233 228 226 226 227 222 214 220 228 241 254 262 268 273 276 269 259 261 268 265 257 251 252 255 260 259 260 263 262 263 260 263 265 267 270 275 276
231 232 233 231 227 223 226 228 228 226 224 212 209 222 231 236 241 252 261 265 271 278 277 265 271 270 267 264 262 252 253 260 264 263 262 271 274 267 266 269 271 272 274 275
232 232 235 237 227 216 222 226 221 226 225 210 215 230 244 249 247 250 254 258 254 252 263 276 278 270 267 266 265 250 250 255 262 268 268 266 269 271 270 270 271 273 273 271
233 228 222 227 235 231 223 214 210 226 233 217 220 235 248 258 253 247 255 275 272 255 260 274 272 266 264 265 265 251 250 256 262 266 268 270 270 271 271 270 270 271 271 271
227 224 233 234 232 252 252 224 214 223 235 241 242 244 254 263 261 257 249 252 267 276 275 266 265 270 274 274 255 250 254 258 262 265 267 268 270 271 271 269 269 269 267 267
237 238 242 241 235 243 263 249 232 228 237 243 247 249 252 256 252 256 275 263 258 276 277 266 273 280 283 275 257 254 256 259 263 265 266 266 266 266 268 269 269 269 268 267
244 245 246 245 223 234 259 263 253 247 247 252 252 249 250 262 265 248 248 272 281 284 277 277 284 286 286 271 259 257 258 260 260 262 265 266 265 265 266 268 269 268 267 265
246 249 249 244 248 252 255 263 273 270 265 267 265 257 248 238 247 265 265 267 277 284 279 281 286 288 282 265 260 260 260 260 263 264 262 263 264 265 266 265 265 266 265 263
250 249 248 243 244 251 252 251 258 264 267 274 276 267 258 252 250 258 265 267 268 278 277 272 274 279 270 264 263 263 262 268 273 269 262 262 262 262 263 263 263 262 262 261
262 260 262 270 262 244 237 238 249 259 258 260 272 272 266 265 263 264 266 269 270 269 269 269 266 263 264 264 264 264 263 262 262 262 261 260 260 259 259 258 260 260 258 257
Height
1514 1512 1511 1509 1508 1510 1511 1510 1510 1502 1501 1491 1489 1488 1487 1488 1488 1489 1489 1490 1490 1491 1491 1491 1491 1491 1490 1489 1489 1488 1487 1486 1485 1484 1484 1483 1483 1482 1481 1480 1479 1478 1478 1477
1514 1510 1510 1508 1503 1504 1503 1502 1501 1498 1493 1484 1485 1485 1485 1485 1485 1486 1487 1487 1488 1489 1489 1489 1489 1488 1487 1487 1486 1485 1484 1482 1481 1481 1480 1479 1479 1478 1477 1475 1475 1474 1473 1472
1514 1512 1506 1501 1491 1492 1494 1491 1492 1491 1484 1481 1482 1482 1481 1482 1482 1483 1484 1485 1486 1486 1486 1486 1486 1485 1484 1483 1482 1481 1480 1479 1478 1477 1476 1475 1474 1473 1472 1471 1470 1469 1468 1467
1516 1511 1506 1486 1482 1483 1485 1483 1483 1480 1478 1478 1478 1478 1478 1479 1479 1480 1482 1483 1483 1483 1484 1484 1483 1482 1481 1480 1479 1478 1477 1476 1475 1473 1472 1471 1470 1469 1468 1466 1465 1464 1463 1462
1517 1514 1502 1485 1480 1481 1483 1479 1475 1475 1475 1476 1476 1477 1476 1476 1477 1478 1479 1480 1480 1481 1481 1480 1480 1479 1478 1477 1476 1475 1473 1472 1471 1470 1468 1467 1466 1465 1463 1462 1460 1459 1458 1457
1515 1508 1496 1478 1477 1476 1479 1477 1469 1470 1471 1473 1475 1480 1476 1474 1475 1476 1476 1477 1477 1477 1477 1477 1476 1475 1474 1473 1472 1471 1470 1469 1468 1466 1464 1463 1461 1460 1459 1457 1456 1454 1453 1452
1511 1507 1492 1477 1475 1477 1482 1473 1468 1467 1468 1470 1472 1472 1472 1472 1472 1473 1474 1474 1474 1474 1474 1473 1472 1472 1471 1470 1469 1468 1466 1465 1464 1462 1461 1459 1457 1456 1454 1452 1451 1449 1448 1447
1505 1504 1489 1471 1473 1475 1471 1467 1466 1466 1467 1468 1468 1469 1469 1470 1470 1470 1470 1471 1471 1470 1470 1470 1469 1468 1467 1466 1465 1464 1462 1461 1459 1458 1456 1454 1453 1451 1449 1447 1445 1443 1442 1440
1486 1478 1468 1466 1466 1465 1465 1465 1465 1465 1465 1466 1466 1466 1466 1467 1467 1467 1467 1467 1467 1467 1467 1466 1466 1464 1463 1462 1461 1460 1458 1457 1455 1453 1452 1450 1448 1446 1444 1442 1440 1438 1436 1434
1479 1468 1464 1463 1462 1462 1462 1462 1462 1463 1463 1463 1463 1463 1463 1463 1463 1464 1464 1464 1464 1463 1463 1462 1462 1461 1460 1458 1457 1455 1454 1452 1450 1448 1446 1445 1443 1441 1439 1437 1435 1433 1431 1429
1471 1463 1460 1457 1457 1457 1458 1459 1459 1459 1459 1459 1459 1459 1459 1459 1460 1460 1460 1460 1460 1459 1459 1458 1458 1457 1456 1454 1452 1451 1449 1447 1445 1443 1441 1439 1438 1436 1434 1432 1430 1428 1425 1423
1459 1454 1455 1452 1452 1453 1454 1454 1454 1454 1454 1454 1455 1455 1455 1455 1455 1456 1456 1456 1456 1455 1455 1454 1453 1452 1451 1450 1448 1446 1444 1442 1440 1438 1436 1434 1432 1430 1428 1427 1424 1422 1420 1418
1448 1448 1449 1448 1448 1448 1449 1449 1449 1449 1449 1449 1450 1450 1450 1451 1451 1451 1451 1451 1451 1451 1451 1450 1449 1448 1447 1445 1443 1441 1439 1437 1435 1433 1431 1428 1426 1423 1421 1419 1418 1416 1414 1412
1443 1444 1443 1442 1442 1443 1443 1443 1444 1444 1444 1444 1445 1445 1446 1446 1447 1447 1447 1447 1447 1447 1446 1445 1444 1443 1442 1440 1438 1436 1434 1432 1430 1427 1425 1423 1420 1418 1415 1412 1410 1408 1408 1406
1437 1437 1437 1436 1437 1437 1438 1438 1438 1438 1439 1439 1440 1441 1441 1442 1442 1442 1442 1442 1442 1442 1441 1440 1439 1438 1436 1434 1432 1430 1428 1426 1424 1421 1419 1417 1414 1412 1410 1407 1405 1402 1401 1400
1430 1431 1431 1431 1431 1432 1432 1433 1433 1433 1434 1435 1436 1436 1437 1437 1437 1438 1438 1438 1437 1436 1436 1435 1433 1432 1430 1428 1426 1424 1422 1420 1417 1415 1413 1410 1408 1406 1404 1401 1399 1396 1394 1393
1425 1424 1425 1425 1426 1426 1427 1428 1428 1429 1430 1430 1431 1432 1432 1433 1433 1433 1433 1433 1432 1431 1431 1429 1428 1426 1424 1422 1420 1417 1415 1413 1411 1409 1407 1404 1402 1400 1398 1395 1393 1391 1389 1387
1418 1419 1420 1421 1421 1421 1422 1423 1424 1425 1425 1426 1427 1427 1428 1428 1427 1428 1428 1427 1426 1426 1425 1424 1422 1420 1418 1416 1414 1411 1409 1407 1405 1403 1400 1398 1396 1394 1392 1389 1387 1385 1382 1381
1414 1415 1415 1416 1417 1417 1418 1419 1420 1421 1421 1422 1422 1422 1423 1423 1423 1423 1423 1422 1421 1420 1419 1418 1416 1414 1412 1410 1407 1405 1403 1401 1399 1396 1394 1392 1390 1387 1385 1383 1381 1379 1377 1375
1411 1411 1412 1412 1413 1413 1414 1415 1416 1417 1417 1418 1418 1418 1418 1418 1419 1418 1417 1416 1415 1414 1413 1411 1409 1407 1405 1403 1401 1399 1397 1395 1392 1390 1388 1386 1383 1381 1379 1377 1375 1372 1371 1369
1408 1409 1409 1409 1410 1411 1411 1412 1413 1413 1414 1414 1414 1414 1414 1414 1414 1413 1411 1410 1410 1409 1407 1405 1403 1401 1399 1397 1395 1393 1390 1388 1386 1384 1381 1379 1377 1374 1372 1370 1368 1366 1364 1363
1406 1407 1407 1407 1408 1408 1408 1409 1409 1410 1410 1410 1410 1410 1409 1409 1408 1407 1406 1405 1403 1402 1400 1398 1397 1395 1393 1390 1388 1386 1384 1382 1379 1377 1375 1372 1370 1368 1366 1364 1362 1360 1358 1357
1405 1405 1405 1405 1405 1405 1406 1406 1406 1406 1406 1405 1405 1405 1404 1403 1403 1401 1400 1399 1397 1396 1394 1392 1390 1388 1386 1384 1381 1379 1377 1375 1373 1371 1368 1366 1363 1361 1359 1358 1356 1354 1352 1351
1402 1402 1402 1402 1402 1402 1402 1402 1402 1402 1402 1401 1401 1400 1399 1398 1396 1396 1394 1393 1391 1389 1387 1385 1383 1381 1379 1377 1375 1372 1370 1368 1366 1364 1361 1359 1357 1355 1353 1352 1350 1348 1346 1345
1399 1399 1399 1399 1399 1398 1398 1398 1397 1397 1397 1396 1396 1395 1394 1392 1391 1389 1388 1386 1384 1382 1380 1378 1376 1374 1372 1370 1368 1365 1363 1361 1359 1357 1354 1353 1351 1349 1347 1345 1344 1342 1340 1339
1396 1396 1396 1395 1395 1395 1394 1394 1393 1392 1392 1390 1389 1389 1387 1386 1384 1383 1381 1379 1377 1375 1373 1371 1369 1367 1365 1363 1360 1358 1356 1354 1352 1350 1348 1346 1345 1343 1341 1339 1338 1336 1335 1333
1392 1392 1392 1391 1391 1391 1390 1389 1388 1387 1386 1385 1383 1382 1381 1379 1378 1376 1374 1372 1370 1368 1366 1364 1362 1360 1358 1355 1353 1351 1349 1347 1345 1344 1342 1340 1338 1337 1335 1334 1332 1331 1329 1328